Terminal Aerodrome Forecast
Issued by NWS

Home | Current Version | Previous Version | Text Only | Print | Product List | Glossary On
Versions: 1 2 3 4 5 6 7 8 9 10 11 12 13 14 15 16 17 18 19 20 21 22 23 24 25 26 27
000
FTUS45 KBOI 172322
TAFMYL
TAF
KMYL 172322Z 1800/1824 VRB05KT P6SM SCT090 BKN200
     FM180900 VRB03KT P6SM VCSH SCT070 OVC120
     FM181900 21012G23KT P6SM SCT080 BKN200=

USA.gov is the U.S. government's official web portal to all federal, state and local government web resources and services.